Time,TemperatureF,DewpointF,PressureIn,WindDirection,WindDirectionDegrees,WindSpeedMPH,WindSpeedGustMPH,Humidity,HourlyPrecipIn,Conditions,Clouds,dailyrainin,SoftwareType,DateUTC
2013-03-15 00:00:00,30.4,21.8,30.11,SW,223,0.0,4.0,70,0.00,,CLR,0.00,VWS V14.00,2013-03-15 04:00:00,
2013-03-15 00:05:00,30.6,22.0,30.11,SW,219,2.0,4.0,70,0.00,,CLR,0.00,VWS V14.00,2013-03-15 04:05:00,
2013-03-15 00:10:00,30.9,22.3,30.11,SW,229,3.0,5.0,70,0.00,,CLR,0.00,VWS V14.00,2013-03-15 04:10:00,
2013-03-15 00:15:00,31.0,22.4,30.11,SW,224,2.0,7.0,70,0.00,,CLR,0.00,VWS V14.00,2013-03-15 04:15:00,
2013-03-15 00:20:00,31.1,22.5,30.11,WSW,244,3.0,5.0,70,0.00,,CLR,0.00,VWS V14.00,2013-03-15 04:20:00,
2013-03-15 00:25:00,31.2,22.6,30.11,WSW,242,3.0,6.0,70,0.00,,CLR,0.00,VWS V14.00,2013-03-15 04:25:00,
2013-03-15 00:30:00,31.2,22.9,30.11,SW,236,1.0,4.0,71,0.00,,CLR,0.00,VWS V14.00,2013-03-15 04:30:00,
2013-03-15 00:35:00,31.2,22.9,30.10,West,263,0.0,4.0,71,0.00,,CLR,0.00,VWS V14.00,2013-03-15 04:35:00,
2013-03-15 00:40:00,31.1,23.1,30.10,WSW,248,0.0,3.0,72,0.00,,CLR,0.00,VWS V14.00,2013-03-15 04:40:00,
2013-03-15 00:45:00,31.0,23.0,30.10,WSW,248,0.0,3.0,72,0.00,,CLR,0.00,VWS V14.00,2013-03-15 04:45:00,
2013-03-15 00:50:00,30.9,23.3,30.10,West,267,2.0,2.0,73,0.00,,CLR,0.00,VWS V14.00,2013-03-15 04:50:00,
2013-03-15 00:55:00,30.9,23.3,30.10,West,267,2.0,2.0,73,0.00,,CLR,0.00,VWS V14.00,2013-03-15 04:55:00,
2013-03-15 01:00:00,31.0,23.7,30.10,WSW,238,1.0,6.0,74,0.00,,BKN049,0.00,VWS V14.00,2013-03-15 05:00:00,
2013-03-15 01:05:00,31.3,24.0,30.09,WSW,244,0.0,6.0,74,0.00,,BKN049,0.00,VWS V14.00,2013-03-15 05:05:00,
2013-03-15 01:10:00,31.5,24.2,30.10,WSW,248,0.0,4.0,74,0.00,,BKN049,0.00,VWS V14.00,2013-03-15 05:10:00,
2013-03-15 01:15:00,31.6,24.3,30.09,WSW,242,5.0,5.0,74,0.00,,BKN049,0.00,VWS V14.00,2013-03-15 05:15:00,
2013-03-15 01:20:00,31.7,24.4,30.10,WSW,240,0.0,0.0,74,0.00,,BKN049,0.00,VWS V14.00,2013-03-15 05:20:00,
2013-03-15 01:25:00,31.7,24.4,30.10,West,261,2.0,4.0,74,0.00,,BKN049,0.00,VWS V14.00,2013-03-15 05:25:00,
2013-03-15 01:30:00,31.8,24.5,30.09,WSW,238,3.0,3.0,74,0.00,,BKN049,0.00,VWS V14.00,2013-03-15 05:30:00,
2013-03-15 01:35:00,31.9,24.6,30.09,WSW,238,0.0,3.0,74,0.00,,BKN049,0.00,VWS V14.00,2013-03-15 05:35:00,
2013-03-15 01:40:00,31.9,24.6,30.09,WSW,250,0.0,0.0,74,0.00,,BKN049,0.00,VWS V14.00,2013-03-15 05:40:00,
2013-03-15 01:45:00,31.8,24.5,30.09,West,263,0.0,4.0,74,0.00,,BKN049,0.00,VWS V14.00,2013-03-15 05:45:00,
2013-03-15 01:50:00,31.7,24.4,30.08,West,262,2.0,3.0,74,0.00,,BKN049,0.00,VWS V14.00,2013-03-15 05:50:00,
2013-03-15 01:55:00,31.6,24.3,30.08,WSW,254,3.0,4.0,74,0.00,,BKN049,0.00,VWS V14.00,2013-03-15 05:55:00,
2013-03-15 02:00:00,31.7,24.4,30.09,West,259,0.0,5.0,74,0.00,,FEW049,0.00,VWS V14.00,2013-03-15 06:00:00,
2013-03-15 02:05:00,31.6,24.3,30.09,WSW,248,0.0,5.0,74,0.00,,FEW049,0.00,VWS V14.00,2013-03-15 06:05:00,
2013-03-15 02:10:00,31.5,24.5,30.08,WSW,244,0.0,2.0,75,0.00,,FEW049,0.00,VWS V14.00,2013-03-15 06:10:00,
2013-03-15 02:15:00,31.4,24.4,30.08,WSW,250,0.0,3.0,75,0.00,,FEW049,0.00,VWS V14.00,2013-03-15 06:15:00,
2013-03-15 02:20:00,31.3,24.3,30.08,WSW,250,1.0,3.0,75,0.00,,FEW049,0.00,VWS V14.00,2013-03-15 06:20:00,
2013-03-15 02:25:00,31.2,24.2,30.07,West,260,0.0,5.0,75,0.00,,FEW049,0.00,VWS V14.00,2013-03-15 06:25:00,
2013-03-15 02:30:00,31.2,24.2,30.07,West,259,0.0,2.0,75,0.00,,FEW049,0.00,VWS V14.00,2013-03-15 06:30:00,
2013-03-15 02:35:00,31.2,24.2,30.07,WSW,243,0.0,2.0,75,0.00,,FEW049,0.00,VWS V14.00,2013-03-15 06:35:00,
2013-03-15 02:40:00,31.1,24.1,30.07,WSW,254,2.0,3.0,75,0.00,,FEW049,0.00,VWS V14.00,2013-03-15 06:40:00,
2013-03-15 02:45:00,31.0,24.0,30.07,WSW,248,4.0,4.0,75,0.00,,FEW049,0.00,VWS V14.00,2013-03-15 06:45:00,
2013-03-15 02:50:00,31.2,24.2,30.06,SW,217,0.0,4.0,75,0.00,,FEW049,0.00,VWS V14.00,2013-03-15 06:50:00,
2013-03-15 02:55:00,31.3,24.6,30.06,WSW,237,2.0,4.0,76,0.00,,FEW049,0.00,VWS V14.00,2013-03-15 06:55:00,
2013-03-15 03:00:00,31.4,24.7,30.06,WSW,237,0.0,0.0,76,0.00,,OVC055,0.00,VWS V14.00,2013-03-15 07:00:00,
2013-03-15 03:05:00,31.5,24.8,30.06,WSW,237,0.0,4.0,76,0.00,,OVC055,0.00,VWS V14.00,2013-03-15 07:05:00,
2013-03-15 03:10:00,31.6,24.9,30.06,WSW,250,0.0,3.0,76,0.00,,OVC055,0.00,VWS V14.00,2013-03-15 07:10:00,
2013-03-15 03:15:00,31.7,25.0,30.06,WSW,244,0.0,5.0,76,0.00,,OVC055,0.00,VWS V14.00,2013-03-15 07:15:00,
2013-03-15 03:20:00,31.8,25.1,30.06,WSW,244,0.0,0.0,76,0.00,,OVC055,0.00,VWS V14.00,2013-03-15 07:20:00,
2013-03-15 03:25:00,31.7,24.7,30.06,SW,234,3.0,4.0,75,0.00,,OVC055,0.00,VWS V14.00,2013-03-15 07:25:00,
2013-03-15 03:30:00,31.6,24.9,30.05,WSW,246,0.0,3.0,76,0.00,,OVC055,0.00,VWS V14.00,2013-03-15 07:30:00,
2013-03-15 03:35:00,31.5,24.8,30.05,WSW,237,0.0,4.0,76,0.00,,OVC055,0.00,VWS V14.00,2013-03-15 07:35:00,
2013-03-15 03:40:00,31.4,24.7,30.05,WSW,240,3.0,4.0,76,0.00,,OVC055,0.00,VWS V14.00,2013-03-15 07:40:00,
2013-03-15 03:45:00,31.3,24.9,30.04,West,259,3.0,4.0,77,0.00,,OVC055,0.00,VWS V14.00,2013-03-15 07:45:00,
2013-03-15 03:50:00,31.1,24.8,30.05,WSW,252,2.0,4.0,77,0.00,,OVC055,0.00,VWS V14.00,2013-03-15 07:50:00,
2013-03-15 03:55:00,31.0,24.6,30.04,WSW,244,0.0,4.0,77,0.00,,OVC055,0.00,VWS V14.00,2013-03-15 07:55:00,
2013-03-15 04:00:00,30.9,24.9,30.04,WSW,244,3.0,3.0,78,0.00,,SCT050,0.00,VWS V14.00,2013-03-15 08:00:00,
2013-03-15 04:05:00,30.8,24.8,30.04,WSW,244,0.0,3.0,78,0.00,,SCT050,0.00,VWS V14.00,2013-03-15 08:05:00,
2013-03-15 04:10:00,30.6,24.6,30.03,SW,231,0.0,5.0,78,0.00,,SCT050,0.00,VWS V14.00,2013-03-15 08:10:00,
2013-03-15 04:15:00,30.6,24.9,30.03,SW,231,0.0,5.0,79,0.00,,SCT050,0.00,VWS V14.00,2013-03-15 08:15:00,
2013-03-15 04:20:00,30.5,24.8,30.03,SW,231,0.0,2.0,79,0.00,,SCT050,0.00,VWS V14.00,2013-03-15 08:20:00,
2013-03-15 04:25:00,30.5,24.8,30.02,SW,231,2.0,6.0,79,0.00,,SCT050,0.00,VWS V14.00,2013-03-15 08:25:00,
2013-03-15 04:30:00,30.4,25.0,30.02,SW,233,2.0,5.0,80,0.00,,SCT050,0.00,VWS V14.00,2013-03-15 08:30:00,
2013-03-15 04:35:00,30.4,25.0,30.02,WSW,237,1.0,6.0,80,0.00,,SCT050,0.00,VWS V14.00,2013-03-15 08:35:00,
2013-03-15 04:40:00,30.4,25.0,30.02,SW,227,3.0,5.0,80,0.00,,SCT050,0.00,VWS V14.00,2013-03-15 08:40:00,
2013-03-15 04:45:00,30.4,25.0,30.02,WSW,246,0.0,5.0,80,0.00,,SCT050,0.00,VWS V14.00,2013-03-15 08:45:00,
2013-03-15 04:50:00,30.4,25.0,30.01,SW,225,0.0,6.0,80,0.00,,SCT050,0.00,VWS V14.00,2013-03-15 08:50:00,
2013-03-15 04:55:00,30.5,25.4,30.01,WSW,244,0.0,6.0,81,0.00,,SCT050,0.00,VWS V14.00,2013-03-15 08:55:00,
2013-03-15 05:00:00,30.5,25.4,30.01,SW,227,4.0,5.0,81,0.00,,FEW014,0.00,VWS V14.00,2013-03-15 09:00:00,
2013-03-15 05:05:00,30.6,25.5,30.01,WSW,248,2.0,7.0,81,0.00,,FEW014,0.00,VWS V14.00,2013-03-15 09:05:00,
2013-03-15 05:10:00,30.8,25.7,30.01,WSW,242,3.0,10.0,81,0.00,,FEW014,0.00,VWS V14.00,2013-03-15 09:10:00,
2013-03-15 05:15:00,31.0,26.2,30.00,WSW,247,2.0,10.0,82,0.00,,FEW014,0.00,VWS V14.00,2013-03-15 09:15:00,
2013-03-15 05:20:00,31.1,26.3,30.00,WSW,247,6.0,6.0,82,0.00,,FEW014,0.00,VWS V14.00,2013-03-15 09:20:00,
2013-03-15 05:25:00,31.3,26.5,30.01,WNW,295,0.0,9.0,82,0.00,,FEW014,0.00,VWS V14.00,2013-03-15 09:25:00,
2013-03-15 05:30:00,31.5,26.9,30.01,WSW,252,0.0,7.0,83,0.00,,BKN014,0.00,VWS V14.00,2013-03-15 09:30:00,
2013-03-15 05:35:00,31.6,27.0,30.00,SSW,208,0.0,7.0,83,0.00,,BKN014,0.00,VWS V14.00,2013-03-15 09:35:00,
2013-03-15 05:40:00,31.7,27.1,29.99,WSW,242,4.0,5.0,83,0.00,,BKN014,0.00,VWS V14.00,2013-03-15 09:40:00,
2013-03-15 05:45:00,31.7,27.4,29.99,SSW,202,5.0,7.0,84,0.00,,BKN014,0.00,VWS V14.00,2013-03-15 09:45:00,
2013-03-15 05:50:00,31.7,27.4,29.99,SW,235,2.0,4.0,84,0.00,,BKN014,0.00,VWS V14.00,2013-03-15 09:50:00,
2013-03-15 05:55:00,31.8,27.5,29.99,WSW,254,3.0,7.0,84,0.00,,BKN014,0.00,VWS V14.00,2013-03-15 09:55:00,
2013-03-15 06:00:00,31.9,27.9,29.99,West,269,0.0,5.0,85,0.00,,OVC012,0.00,VWS V14.00,2013-03-15 10:00:00,
2013-03-15 06:05:00,32.0,28.0,29.99,SW,230,6.0,10.0,85,0.00,,OVC012,0.00,VWS V14.00,2013-03-15 10:05:00,
2013-03-15 06:10:00,32.0,28.0,29.99,WNW,288,2.0,5.0,85,0.00,,OVC012,0.00,VWS V14.00,2013-03-15 10:10:00,
2013-03-15 06:15:00,32.0,28.0,29.99,West,280,0.0,7.0,85,0.00,,OVC012,0.00,VWS V14.00,2013-03-15 10:15:00,
2013-03-15 06:20:00,32.1,28.1,29.99,WSW,248,6.0,6.0,85,0.00,,OVC012,0.00,VWS V14.00,2013-03-15 10:20:00,
2013-03-15 06:25:00,32.1,28.1,29.99,WSW,245,0.0,6.0,85,0.00,,OVC012,0.00,VWS V14.00,2013-03-15 10:25:00,
2013-03-15 06:30:00,32.2,28.2,29.98,SW,217,2.0,6.0,85,0.00,,OVC012,0.00,VWS V14.00,2013-03-15 10:30:00,
2013-03-15 06:35:00,32.2,28.2,29.98,WSW,258,5.0,6.0,85,0.00,,OVC012,0.00,VWS V14.00,2013-03-15 10:35:00,
2013-03-15 06:40:00,32.2,28.2,29.98,WSW,245,1.0,5.0,85,0.00,,OVC012,0.00,VWS V14.00,2013-03-15 10:40:00,
2013-03-15 06:45:00,32.2,28.2,29.98,WNW,289,5.0,6.0,85,0.00,,OVC012,0.00,VWS V14.00,2013-03-15 10:45:00,
2013-03-15 06:50:00,32.1,28.1,29.98,WSW,237,4.0,9.0,85,0.00,,OVC012,0.00,VWS V14.00,2013-03-15 10:50:00,
2013-03-15 06:55:00,31.9,27.9,29.97,WSW,250,2.0,9.0,85,0.00,,OVC012,0.00,VWS V14.00,2013-03-15 10:55:00,
2013-03-15 07:00:00,31.7,27.7,29.97,West,263,2.0,3.0,85,0.00,,OVC012,0.00,VWS V14.00,2013-03-15 11:00:00,
2013-03-15 07:05:00,31.5,27.5,29.97,WSW,240,4.0,6.0,85,0.00,,OVC012,0.00,VWS V14.00,2013-03-15 11:05:00,
2013-03-15 07:10:00,31.4,27.7,29.97,WSW,240,4.0,5.0,86,0.00,,OVC012,0.00,VWS V14.00,2013-03-15 11:10:00,
2013-03-15 07:15:00,31.3,27.6,29.96,WSW,252,0.0,6.0,86,0.00,,OVC012,0.00,VWS V14.00,2013-03-15 11:15:00,
2013-03-15 07:20:00,31.2,27.5,29.96,WSW,252,0.0,5.0,86,0.00,,OVC012,0.00,VWS V14.00,2013-03-15 11:20:00,
2013-03-15 07:25:00,31.1,27.4,29.96,WSW,244,0.0,5.0,86,0.00,,OVC012,0.00,VWS V14.00,2013-03-15 11:25:00,
2013-03-15 07:30:00,31.1,27.4,29.96,SW,221,4.0,4.0,86,0.00,,OVC010,0.00,VWS V14.00,2013-03-15 11:30:00,
2013-03-15 07:35:00,31.1,27.7,29.95,WSW,246,0.0,4.0,87,0.00,,OVC010,0.00,VWS V14.00,2013-03-15 11:35:00,
2013-03-15 07:40:00,31.0,27.6,29.96,WSW,245,3.0,3.0,87,0.00,,OVC010,0.00,VWS V14.00,2013-03-15 11:40:00,
2013-03-15 07:45:00,31.0,27.6,29.95,WSW,258,2.0,5.0,87,0.00,,OVC010,0.00,VWS V14.00,2013-03-15 11:45:00,
2013-03-15 07:50:00,31.0,27.6,29.96,WSW,238,0.0,2.0,87,0.00,,OVC010,0.00,VWS V14.00,2013-03-15 11:50:00,
2013-03-15 07:55:00,30.9,27.5,29.96,SW,230,1.0,6.0,87,0.00,,OVC010,0.00,VWS V14.00,2013-03-15 11:55:00,
2013-03-15 08:00:00,30.9,27.5,29.96,SW,236,0.0,3.0,87,0.00,,,0.00,VWS V14.00,2013-03-15 12:00:00,
2013-03-15 08:05:00,30.9,27.8,29.95,SW,232,0.0,7.0,88,0.00,,,0.00,VWS V14.00,2013-03-15 12:05:00,
2013-03-15 08:10:00,31.0,27.9,29.96,SW,230,4.0,7.0,88,0.00,,,0.00,VWS V14.00,2013-03-15 12:10:00,
2013-03-15 08:15:00,31.0,27.9,29.96,WSW,248,5.0,7.0,88,0.00,,,0.00,VWS V14.00,2013-03-15 12:15:00,
2013-03-15 08:20:00,31.0,27.9,29.96,WSW,240,2.0,4.0,88,0.00,,,0.00,VWS V14.00,2013-03-15 12:20:00,
2013-03-15 08:25:00,31.0,27.9,29.95,WSW,241,0.0,8.0,88,0.00,,,0.00,VWS V14.00,2013-03-15 12:25:00,
2013-03-15 08:30:00,31.0,27.9,29.95,WSW,254,3.0,3.0,88,0.00,,,0.00,VWS V14.00,2013-03-15 12:30:00,
2013-03-15 08:35:00,31.0,27.9,29.95,West,265,1.0,7.0,88,0.00,,,0.00,VWS V14.00,2013-03-15 12:35:00,
2013-03-15 08:40:00,31.1,28.2,29.96,SW,232,3.0,4.0,89,0.00,,,0.00,VWS V14.00,2013-03-15 12:40:00,
2013-03-15 08:45:00,31.2,28.3,29.96,WSW,246,5.0,9.0,89,0.00,,,0.00,VWS V14.00,2013-03-15 12:45:00,
2013-03-15 08:50:00,31.3,28.4,29.96,SW,225,1.0,5.0,89,0.00,,,0.00,VWS V14.00,2013-03-15 12:50:00,
2013-03-15 08:55:00,31.4,28.5,29.96,SW,233,6.0,7.0,89,0.00,,,0.00,VWS V14.00,2013-03-15 12:55:00,
2013-03-15 09:00:00,31.5,28.6,29.96,West,263,0.0,5.0,89,0.00,,,0.00,VWS V14.00,2013-03-15 13:00:00,
2013-03-15 09:05:00,31.6,28.7,29.96,WSW,252,3.0,9.0,89,0.00,,,0.00,VWS V14.00,2013-03-15 13:05:00,
2013-03-15 09:10:00,31.7,28.8,29.96,WSW,250,0.0,5.0,89,0.00,,,0.00,VWS V14.00,2013-03-15 13:10:00,
2013-03-15 09:15:00,31.9,29.0,29.96,SW,223,3.0,9.0,89,0.00,,,0.00,VWS V14.00,2013-03-15 13:15:00,
2013-03-15 09:20:00,31.9,29.0,29.96,WSW,254,4.0,6.0,89,0.00,,,0.00,VWS V14.00,2013-03-15 13:20:00,
2013-03-15 09:25:00,32.1,29.2,29.95,SW,234,4.0,7.0,89,0.00,,,0.00,VWS V14.00,2013-03-15 13:25:00,
2013-03-15 09:30:00,32.1,29.0,29.95,SSW,212,7.0,7.0,88,0.00,,,0.00,VWS V14.00,2013-03-15 13:30:00,
2013-03-15 09:35:00,32.3,29.1,29.95,SW,226,6.0,10.0,88,0.00,,,0.00,VWS V14.00,2013-03-15 13:35:00,
2013-03-15 09:40:00,32.4,29.2,29.95,SW,227,3.0,9.0,88,0.00,,,0.00,VWS V14.00,2013-03-15 13:40:00,
2013-03-15 09:45:00,32.6,29.5,29.95,West,260,11.0,12.0,88,0.00,,,0.00,VWS V14.00,2013-03-15 13:45:00,
2013-03-15 09:50:00,32.8,29.6,29.94,SW,234,4.0,7.0,88,0.00,,,0.00,VWS V14.00,2013-03-15 13:50:00,
2013-03-15 09:55:00,33.0,29.8,29.94,WSW,252,4.0,10.0,88,0.00,,,0.00,VWS V14.00,2013-03-15 13:55:00,
2013-03-15 10:00:00,33.3,30.1,29.94,WSW,246,0.0,0.0,88,0.00,,,0.00,VWS V14.00,2013-03-15 14:00:00,
2013-03-15 10:05:00,33.5,30.0,29.94,SW,231,6.0,9.0,87,0.00,,,0.00,VWS V14.00,2013-03-15 14:05:00,
2013-03-15 10:10:00,33.8,30.4,29.93,WNW,284,0.0,10.0,87,0.00,,,0.00,VWS V14.00,2013-03-15 14:10:00,
2013-03-15 10:15:00,34.0,30.3,29.94,SW,234,6.0,11.0,86,0.00,,,0.00,VWS V14.00,2013-03-15 14:15:00,
2013-03-15 10:20:00,34.3,30.6,29.94,SW,227,9.0,9.0,86,0.00,,,0.00,VWS V14.00,2013-03-15 14:20:00,
2013-03-15 10:25:00,34.4,30.6,29.94,WSW,248,3.0,9.0,86,0.00,,,0.00,VWS V14.00,2013-03-15 14:25:00,
2013-03-15 10:30:00,34.8,30.8,29.94,WSW,246,2.0,5.0,85,0.00,,,0.00,VWS V14.00,2013-03-15 14:30:00,
2013-03-15 10:35:00,35.0,30.7,29.94,WSW,254,0.0,9.0,84,0.00,,,0.00,VWS V14.00,2013-03-15 14:35:00,
2013-03-15 10:40:00,35.3,31.0,29.94,WSW,244,4.0,12.0,84,0.00,,,0.00,VWS V14.00,2013-03-15 14:40:00,
2013-03-15 10:45:00,35.4,30.8,29.94,West,261,5.0,12.0,83,0.00,,,0.00,VWS V14.00,2013-03-15 14:45:00,
2013-03-15 10:50:00,35.8,31.1,29.93,WSW,252,3.0,4.0,83,0.00,,,0.00,VWS V14.00,2013-03-15 14:50:00,
2013-03-15 10:55:00,35.9,31.0,29.93,WSW,252,6.0,9.0,82,0.00,,,0.00,VWS V14.00,2013-03-15 14:55:00,
2013-03-15 11:00:00,35.9,30.6,29.93,West,265,0.0,7.0,81,0.00,,FEW012,0.00,VWS V14.00,2013-03-15 15:00:00,
2013-03-15 11:05:00,36.2,31.2,29.93,West,264,4.0,9.0,82,0.00,,FEW012,0.00,VWS V14.00,2013-03-15 15:05:00,
2013-03-15 11:10:00,36.3,31.0,29.93,West,264,3.0,5.0,81,0.00,,FEW012,0.00,VWS V14.00,2013-03-15 15:10:00,
2013-03-15 11:15:00,36.4,31.1,29.93,West,267,4.0,8.0,81,0.00,,FEW012,0.00,VWS V14.00,2013-03-15 15:15:00,
2013-03-15 11:20:00,36.5,30.9,29.93,West,259,1.0,10.0,80,0.00,,FEW012,0.00,VWS V14.00,2013-03-15 15:20:00,
2013-03-15 11:25:00,36.5,30.9,29.93,West,265,2.0,12.0,80,0.00,,FEW012,0.00,VWS V14.00,2013-03-15 15:25:00,
2013-03-15 11:30:00,36.6,31.0,29.93,WNW,298,3.0,10.0,80,0.00,,FEW012,0.00,VWS V14.00,2013-03-15 15:30:00,
2013-03-15 11:35:00,36.8,30.9,29.92,SW,235,0.0,10.0,79,0.00,,FEW012,0.00,VWS V14.00,2013-03-15 15:35:00,
2013-03-15 11:40:00,36.9,31.0,29.92,WSW,246,0.0,6.0,79,0.00,,FEW012,0.00,VWS V14.00,2013-03-15 15:40:00,
2013-03-15 11:45:00,37.1,31.2,29.93,West,268,9.0,9.0,79,0.00,,FEW012,0.00,VWS V14.00,2013-03-15 15:45:00,
2013-03-15 11:50:00,37.4,31.5,29.93,WSW,252,0.0,3.0,79,0.00,,FEW012,0.00,VWS V14.00,2013-03-15 15:50:00,
2013-03-15 11:55:00,37.6,31.4,29.93,WNW,296,0.0,10.0,78,0.00,,FEW012,0.00,VWS V14.00,2013-03-15 15:55:00,
2013-03-15 12:00:00,37.8,31.6,29.93,WNW,302,3.0,6.0,78,0.00,,BKN110,0.00,VWS V14.00,2013-03-15 16:00:00,
2013-03-15 12:05:00,37.9,31.4,29.93,WSW,249,6.0,12.0,77,0.00,,BKN110,0.00,VWS V14.00,2013-03-15 16:05:00,
2013-03-15 12:10:00,37.9,31.4,29.92,West,268,2.0,10.0,77,0.00,,BKN110,0.00,VWS V14.00,2013-03-15 16:10:00,
2013-03-15 12:15:00,38.0,31.4,29.92,WNW,294,4.0,10.0,77,0.00,,BKN110,0.00,VWS V14.00,2013-03-15 16:15:00,
2013-03-15 12:20:00,38.4,32.2,29.92,SW,236,0.0,6.0,78,0.00,,BKN110,0.00,VWS V14.00,2013-03-15 16:20:00,
2013-03-15 12:25:00,38.8,31.9,29.92,West,264,5.0,11.0,76,0.00,,BKN110,0.00,VWS V14.00,2013-03-15 16:25:00,
2013-03-15 12:30:00,38.9,32.0,29.92,West,259,0.0,5.0,76,0.00,,BKN110,0.00,VWS V14.00,2013-03-15 16:30:00,
2013-03-15 12:35:00,39.1,32.2,29.92,West,275,1.0,10.0,76,0.00,,BKN110,0.00,VWS V14.00,2013-03-15 16:35:00,
2013-03-15 12:40:00,39.2,32.0,29.92,West,272,0.0,4.0,75,0.00,,BKN110,0.00,VWS V14.00,2013-03-15 16:40:00,
2013-03-15 12:45:00,39.2,32.0,29.92,WNW,291,5.0,12.0,75,0.00,,BKN110,0.00,VWS V14.00,2013-03-15 16:45:00,
2013-03-15 12:50:00,39.3,32.0,29.92,West,279,1.0,9.0,75,0.00,,BKN110,0.00,VWS V14.00,2013-03-15 16:50:00,
2013-03-15 12:55:00,39.5,32.2,29.92,West,272,2.0,9.0,75,0.00,,BKN110,0.00,VWS V14.00,2013-03-15 16:55:00,
2013-03-15 13:00:00,39.5,31.9,29.92,WNW,287,10.0,13.0,74,0.00,,SCT100,0.00,VWS V14.00,2013-03-15 17:00:00,
2013-03-15 13:05:00,39.6,32.3,29.92,WSW,256,3.0,13.0,75,0.00,,SCT100,0.00,VWS V14.00,2013-03-15 17:05:00,
2013-03-15 13:10:00,39.9,32.3,29.92,West,261,2.0,9.0,74,0.00,,SCT100,0.00,VWS V14.00,2013-03-15 17:10:00,
2013-03-15 13:15:00,40.2,32.9,29.91,WNW,291,0.0,9.0,75,0.00,,SCT100,0.00,VWS V14.00,2013-03-15 17:15:00,
2013-03-15 13:20:00,40.5,32.9,29.91,West,265,3.0,5.0,74,0.00,,SCT100,0.00,VWS V14.00,2013-03-15 17:20:00,
2013-03-15 13:25:00,40.7,32.7,29.91,WNW,289,0.0,9.0,73,0.00,,SCT100,0.00,VWS V14.00,2013-03-15 17:25:00,
2013-03-15 13:30:00,41.0,33.0,29.91,WNW,284,0.0,7.0,73,0.00,,SCT100,0.00,VWS V14.00,2013-03-15 17:30:00,
2013-03-15 13:35:00,41.1,32.8,29.91,WNW,293,1.0,10.0,72,0.00,,SCT100,0.00,VWS V14.00,2013-03-15 17:35:00,
2013-03-15 13:40:00,41.4,33.4,29.91,West,281,0.0,10.0,73,0.00,,SCT100,0.00,VWS V14.00,2013-03-15 17:40:00,
2013-03-15 13:45:00,41.7,33.0,29.91,WSW,240,0.0,11.0,71,0.00,,SCT100,0.00,VWS V14.00,2013-03-15 17:45:00,
2013-03-15 13:50:00,41.8,33.1,29.91,West,271,11.0,11.0,71,0.00,,SCT100,0.00,VWS V14.00,2013-03-15 17:50:00,
2013-03-15 13:55:00,42.0,33.3,29.91,WNW,284,0.0,12.0,71,0.00,,SCT100,0.00,VWS V14.00,2013-03-15 17:55:00,
2013-03-15 14:00:00,42.0,32.9,29.90,WNW,299,1.0,2.0,70,0.00,,SCT100,0.00,VWS V14.00,2013-03-15 18:00:00,
2013-03-15 14:05:00,41.9,32.8,29.91,West,281,0.0,11.0,70,0.00,,SCT100,0.00,VWS V14.00,2013-03-15 18:05:00,
2013-03-15 14:10:00,42.0,32.9,29.90,West,265,0.0,3.0,70,0.00,,SCT100,0.00,VWS V14.00,2013-03-15 18:10:00,
2013-03-15 14:15:00,42.1,33.0,29.89,West,265,4.0,7.0,70,0.00,,SCT100,0.00,VWS V14.00,2013-03-15 18:15:00,
2013-03-15 14:20:00,42.4,33.7,29.89,West,275,3.0,3.0,71,0.00,,SCT100,0.00,VWS V14.00,2013-03-15 18:20:00,
2013-03-15 14:25:00,42.5,33.1,29.89,West,260,0.0,11.0,69,0.00,,SCT100,0.00,VWS V14.00,2013-03-15 18:25:00,
2013-03-15 14:30:00,42.7,33.6,29.89,NW,309,2.0,5.0,70,0.00,,SCT100,0.00,VWS V14.00,2013-03-15 18:30:00,
2013-03-15 14:35:00,42.8,33.7,29.88,WNW,291,0.0,6.0,70,0.00,,SCT100,0.00,VWS V14.00,2013-03-15 18:35:00,
2013-03-15 14:40:00,43.1,34.0,29.88,NW,306,0.0,4.0,70,0.00,,SCT100,0.00,VWS V14.00,2013-03-15 18:40:00,
2013-03-15 14:45:00,43.1,34.0,29.88,WNW,285,6.0,6.0,70,0.00,,SCT100,0.00,VWS V14.00,2013-03-15 18:45:00,
2013-03-15 14:50:00,43.2,33.4,29.88,WNW,298,7.0,7.0,68,0.00,,SCT100,0.00,VWS V14.00,2013-03-15 18:50:00,
2013-03-15 14:55:00,43.4,33.9,29.88,West,269,5.0,10.0,69,0.00,,SCT100,0.00,VWS V14.00,2013-03-15 18:55:00,
2013-03-15 15:00:00,43.5,34.0,29.87,West,267,4.0,5.0,69,0.00,,SCT100,0.00,VWS V14.00,2013-03-15 19:00:00,
2013-03-15 15:05:00,43.9,34.4,29.87,NW,308,0.0,11.0,69,0.00,,FEW022,0.00,VWS V14.00,2013-03-15 19:05:00,
2013-03-15 15:10:00,43.8,34.3,29.87,WSW,242,5.0,7.0,69,0.00,,FEW022,0.00,VWS V14.00,2013-03-15 19:10:00,
2013-03-15 15:15:00,43.9,34.0,29.87,West,275,6.0,9.0,68,0.00,,FEW022,0.00,VWS V14.00,2013-03-15 19:15:00,
2013-03-15 15:20:00,43.7,33.8,29.86,NW,313,0.0,0.0,68,0.00,,FEW022,0.00,VWS V14.00,2013-03-15 19:20:00,
2013-03-15 15:25:00,44.0,34.5,29.86,West,267,0.0,7.0,69,0.00,,FEW022,0.00,VWS V14.00,2013-03-15 19:25:00,
2013-03-15 15:30:00,44.4,34.5,29.87,NW,317,0.0,0.0,68,0.00,,FEW022,0.00,VWS V14.00,2013-03-15 19:30:00,
2013-03-15 15:35:00,44.1,33.9,29.87,WNW,282,6.0,9.0,67,0.00,,FEW022,0.00,VWS V14.00,2013-03-15 19:35:00,
2013-03-15 15:40:00,44.0,34.1,29.87,West,277,6.0,10.0,68,0.00,,FEW022,0.00,VWS V14.00,2013-03-15 19:40:00,
2013-03-15 15:45:00,44.0,34.5,29.87,WNW,285,0.0,10.0,69,0.00,,FEW022,0.00,VWS V14.00,2013-03-15 19:45:00,
2013-03-15 15:50:00,44.1,34.6,29.87,WNW,288,3.0,6.0,69,0.00,,FEW022,0.00,VWS V14.00,2013-03-15 19:50:00,
2013-03-15 15:55:00,44.1,34.2,29.87,West,279,6.0,10.0,68,0.00,,FEW022,0.00,VWS V14.00,2013-03-15 19:55:00,
2013-03-15 16:00:00,44.3,34.8,29.86,NNW,342,0.0,8.0,69,0.00,,FEW022,0.00,VWS V14.00,2013-03-15 20:00:00,
2013-03-15 16:05:00,44.3,34.8,29.86,WSW,248,2.0,8.0,69,0.00,,OVC095,0.00,VWS V14.00,2013-03-15 20:05:00,
2013-03-15 16:10:00,44.4,34.5,29.86,West,276,0.0,5.0,68,0.00,,OVC095,0.00,VWS V14.00,2013-03-15 20:10:00,
2013-03-15 16:15:00,44.4,34.5,29.86,NW,304,1.0,10.0,68,0.00,,OVC095,0.00,VWS V14.00,2013-03-15 20:15:00,
2013-03-15 16:20:00,44.4,34.9,29.86,West,280,0.0,5.0,69,0.00,,OVC095,0.00,VWS V14.00,2013-03-15 20:20:00,
2013-03-15 16:25:00,44.7,35.2,29.86,West,276,0.0,10.0,69,0.00,,OVC095,0.00,VWS V14.00,2013-03-15 20:25:00,
2013-03-15 16:30:00,44.8,35.3,29.86,WSW,257,0.0,0.0,69,0.00,,OVC095,0.00,VWS V14.00,2013-03-15 20:30:00,
2013-03-15 16:35:00,44.9,35.0,29.86,West,274,0.0,6.0,68,0.00,,OVC095,0.00,VWS V14.00,2013-03-15 20:35:00,
2013-03-15 16:40:00,44.9,35.0,29.86,WSW,240,0.0,7.0,68,0.00,,OVC095,0.00,VWS V14.00,2013-03-15 20:40:00,
2013-03-15 16:45:00,44.8,34.5,29.86,NW,306,4.0,11.0,67,0.00,,OVC095,0.00,VWS V14.00,2013-03-15 20:45:00,
2013-03-15 16:50:00,44.7,34.8,29.86,SW,223,6.0,6.0,68,0.00,,OVC095,0.00,VWS V14.00,2013-03-15 20:50:00,
2013-03-15 16:55:00,44.5,35.0,29.86,West,260,0.0,7.0,69,0.00,,OVC095,0.00,VWS V14.00,2013-03-15 20:55:00,
2013-03-15 17:00:00,44.5,35.3,29.86,NW,314,1.0,2.0,70,0.00,,OVC095,0.00,VWS V14.00,2013-03-15 21:00:00,
2013-03-15 17:05:00,44.6,35.1,29.86,West,261,0.0,11.0,69,0.00,,OVC026,0.00,VWS V14.00,2013-03-15 21:05:00,
2013-03-15 17:10:00,44.6,35.1,29.86,WNW,300,1.0,5.0,69,0.00,,OVC026,0.00,VWS V14.00,2013-03-15 21:10:00,
2013-03-15 17:15:00,44.7,35.2,29.86,WNW,300,0.0,7.0,69,0.00,,OVC026,0.00,VWS V14.00,2013-03-15 21:15:00,
2013-03-15 17:20:00,44.8,35.6,29.85,WNW,294,0.0,3.0,70,0.00,,OVC026,0.00,VWS V14.00,2013-03-15 21:20:00,
2013-03-15 17:25:00,44.9,35.4,29.85,West,275,0.0,6.0,69,0.00,,OVC026,0.00,VWS V14.00,2013-03-15 21:25:00,
2013-03-15 17:30:00,44.8,35.3,29.85,West,262,0.0,3.0,69,0.00,,OVC065,0.00,VWS V14.00,2013-03-15 21:30:00,
2013-03-15 17:35:00,44.5,35.3,29.85,West,273,2.0,9.0,70,0.00,,OVC065,0.00,VWS V14.00,2013-03-15 21:35:00,
2013-03-15 17:40:00,44.3,35.2,29.85,West,277,0.0,0.0,70,0.00,,OVC065,0.00,VWS V14.00,2013-03-15 21:40:00,
2013-03-15 17:45:00,44.3,35.5,29.85,West,270,2.0,6.0,71,0.00,,OVC065,0.00,VWS V14.00,2013-03-15 21:45:00,
2013-03-15 17:50:00,44.2,35.4,29.85,West,276,4.0,6.0,71,0.00,,OVC065,0.00,VWS V14.00,2013-03-15 21:50:00,
2013-03-15 17:55:00,44.1,35.7,29.85,West,275,0.0,6.0,72,0.00,,OVC065,0.00,VWS V14.00,2013-03-15 21:55:00,
2013-03-15 18:00:00,44.1,36.0,29.86,West,280,0.0,0.0,73,0.00,,OVC065,0.00,VWS V14.00,2013-03-15 22:00:00,
2013-03-15 18:05:00,44.0,35.9,29.86,West,260,2.0,6.0,73,0.00,,-RA,0.00,VWS V14.00,2013-03-15 22:05:00,
2013-03-15 18:10:00,43.8,36.1,29.85,West,274,0.0,1.0,74,0.00,,-RA,0.00,VWS V14.00,2013-03-15 22:10:00,
2013-03-15 18:15:00,43.6,35.9,29.85,West,281,0.0,5.0,74,0.00,,-RA,0.00,VWS V14.00,2013-03-15 22:15:00,
2013-03-15 18:20:00,43.5,36.1,29.85,West,281,0.0,3.0,75,0.00,,-RA,0.00,VWS V14.00,2013-03-15 22:20:00,
2013-03-15 18:25:00,43.4,36.3,29.85,West,272,0.0,4.0,76,0.00,,-RA,0.00,VWS V14.00,2013-03-15 22:25:00,
2013-03-15 18:30:00,43.3,36.6,29.85,West,272,0.0,0.0,77,0.00,,-RA,0.00,VWS V14.00,2013-03-15 22:30:00,
2013-03-15 18:35:00,43.2,36.8,29.86,West,276,0.0,3.0,78,0.00,,-RA,0.00,VWS V14.00,2013-03-15 22:35:00,
2013-03-15 18:40:00,43.1,37.0,29.86,West,267,4.0,5.0,79,0.00,,-RA,0.00,VWS V14.00,2013-03-15 22:40:00,
2013-03-15 18:45:00,42.9,36.8,29.85,WNW,300,0.0,5.0,79,0.00,,-RA,0.00,VWS V14.00,2013-03-15 22:45:00,
2013-03-15 18:50:00,42.7,36.7,29.86,NW,317,0.0,1.0,79,0.00,,-RA,0.00,VWS V14.00,2013-03-15 22:50:00,
2013-03-15 18:55:00,42.4,36.7,29.86,NW,311,0.0,4.0,80,0.00,,-RA,0.00,VWS V14.00,2013-03-15 22:55:00,
2013-03-15 19:00:00,42.2,36.5,29.85,NW,311,0.0,2.0,80,0.00,,-RA,0.00,VWS V14.00,2013-03-15 23:00:00,
2013-03-15 19:05:00,42.1,36.7,29.85,NW,311,0.0,2.0,81,0.00,,-RA,0.00,VWS V14.00,2013-03-15 23:05:00,
2013-03-15 19:10:00,41.9,36.5,29.85,NW,311,0.0,0.0,81,0.00,,-RA,0.00,VWS V14.00,2013-03-15 23:10:00,
2013-03-15 19:15:00,41.8,36.7,29.86,NW,311,0.0,0.0,82,0.00,,-RA,0.00,VWS V14.00,2013-03-15 23:15:00,
2013-03-15 19:20:00,41.8,37.0,29.86,NW,311,0.0,0.0,83,0.00,,-RA,0.00,VWS V14.00,2013-03-15 23:20:00,
2013-03-15 19:25:00,41.7,37.2,29.86,NW,311,0.0,0.0,84,0.00,,-RA,0.00,VWS V14.00,2013-03-15 23:25:00,
2013-03-15 19:30:00,41.6,37.4,29.86,NW,311,0.0,0.0,85,0.00,,-RA,0.00,VWS V14.00,2013-03-15 23:30:00,
2013-03-15 19:35:00,41.6,37.4,29.86,NW,311,0.0,0.0,85,0.00,,-RA,0.00,VWS V14.00,2013-03-15 23:35:00,
2013-03-15 19:40:00,41.6,37.7,29.86,NW,311,0.0,0.0,86,0.00,,-RA,0.00,VWS V14.00,2013-03-15 23:40:00,
2013-03-15 19:44:00,41.5,37.6,29.86,NW,311,0.0,0.0,86,0.00,,-RA,0.00,VWS V14.00,2013-03-15 23:44:00,
2013-03-15 19:49:00,41.4,37.5,29.86,NW,311,0.0,1.0,86,0.00,,-RA,0.00,VWS V14.00,2013-03-15 23:49:00,
2013-03-15 19:54:00,41.3,37.4,29.86,NW,311,0.0,1.0,86,0.00,,-RA,0.00,VWS V14.00,2013-03-15 23:54:00,
2013-03-15 19:59:00,41.1,37.5,29.86,NW,311,0.0,0.0,87,0.00,,-RA,0.00,VWS V14.00,2013-03-15 23:59:00,
2013-03-15 20:04:00,41.1,37.5,29.86,NW,311,0.0,0.0,87,0.00,,-RA,0.00,VWS V14.00,2013-03-16 00:04:00,
2013-03-15 20:09:00,41.0,37.4,29.86,NW,311,0.0,0.0,87,0.00,,-RA,0.00,VWS V14.00,2013-03-16 00:09:00,
2013-03-15 20:14:00,40.8,37.2,29.86,NW,311,0.0,1.0,87,0.01,,-RA,0.01,VWS V14.00,2013-03-16 00:14:00,
2013-03-15 20:19:00,40.6,37.0,29.87,NW,318,0.0,0.0,87,0.01,,-RA,0.01,VWS V14.00,2013-03-16 00:19:00,
2013-03-15 20:24:00,40.3,36.8,29.86,NNW,338,0.0,1.0,87,0.01,,-RA,0.01,VWS V14.00,2013-03-16 00:24:00,
2013-03-15 20:29:00,40.2,36.9,29.87,NE,49,0.0,1.0,88,0.01,,-RA,0.01,VWS V14.00,2013-03-16 00:29:00,
2013-03-15 20:34:00,40.1,36.8,29.87,NE,49,0.0,2.0,88,0.01,,-RA,0.01,VWS V14.00,2013-03-16 00:34:00,
2013-03-15 20:39:00,39.9,36.6,29.87,NE,49,0.0,0.0,88,0.01,,-RA,0.01,VWS V14.00,2013-03-16 00:39:00,
2013-03-15 20:44:00,39.8,36.5,29.86,NE,51,1.0,3.0,88,0.01,,-RA,0.01,VWS V14.00,2013-03-16 00:44:00,
2013-03-15 20:49:00,39.7,36.4,29.86,ENE,65,1.0,3.0,88,0.01,,-RA,0.01,VWS V14.00,2013-03-16 00:49:00,
2013-03-15 20:54:00,39.5,36.2,29.87,ENE,67,2.0,3.0,88,0.01,,-RA,0.01,VWS V14.00,2013-03-16 00:54:00,
2013-03-15 20:59:00,39.2,36.0,29.86,ENE,67,1.0,3.0,88,0.01,,-RA,0.01,VWS V14.00,2013-03-16 00:59:00,
2013-03-15 21:04:00,39.0,35.8,29.87,ENE,67,0.0,3.0,88,0.01,,-RA,0.01,VWS V14.00,2013-03-16 01:04:00,
2013-03-15 21:09:00,38.8,35.6,29.86,ENE,67,1.0,2.0,88,0.01,,-RA,0.01,VWS V14.00,2013-03-16 01:09:00,
2013-03-15 21:14:00,38.6,35.4,29.86,ENE,67,0.0,4.0,88,0.01,,-RA,0.01,VWS V14.00,2013-03-16 01:14:00,
2013-03-15 21:19:00,38.4,35.2,29.86,ENE,67,2.0,2.0,88,0.00,,-RA,0.01,VWS V14.00,2013-03-16 01:19:00,
2013-03-15 21:24:00,38.3,35.3,29.86,ENE,67,0.0,2.0,89,0.01,,-RA,0.02,VWS V14.00,2013-03-16 01:24:00,
2013-03-15 21:29:00,38.1,35.2,29.87,ENE,67,0.0,1.0,89,0.01,,-RA,0.02,VWS V14.00,2013-03-16 01:29:00,
2013-03-15 21:34:00,38.0,35.0,29.86,ENE,70,0.0,4.0,89,0.01,,-RA,0.02,VWS V14.00,2013-03-16 01:34:00,
2013-03-15 21:39:00,37.8,34.9,29.86,ENE,76,3.0,3.0,89,0.01,,-RA,0.02,VWS V14.00,2013-03-16 01:39:00,
2013-03-15 21:44:00,37.6,34.7,29.86,ENE,69,4.0,6.0,89,0.01,,-RA,0.02,VWS V14.00,2013-03-16 01:44:00,
2013-03-15 21:49:00,37.3,34.4,29.86,ENE,67,2.0,2.0,89,0.02,,-RA,0.03,VWS V14.00,2013-03-16 01:49:00,
2013-03-15 21:54:00,37.1,34.2,29.86,ENE,74,0.0,4.0,89,0.02,,-RA,0.03,VWS V14.00,2013-03-16 01:54:00,
2013-03-15 21:59:00,37.0,34.1,29.86,East,82,3.0,4.0,89,0.02,,-RA,0.03,VWS V14.00,2013-03-16 01:59:00,
2013-03-15 22:04:00,36.9,34.0,29.86,East,86,0.0,4.0,89,0.02,,-RA,0.03,VWS V14.00,2013-03-16 02:04:00,
2013-03-15 22:09:00,36.8,34.2,29.85,East,92,0.0,4.0,90,0.02,,-RA,0.03,VWS V14.00,2013-03-16 02:09:00,
2013-03-15 22:14:00,36.7,34.0,29.86,ESE,106,0.0,4.0,90,0.02,,-RA,0.03,VWS V14.00,2013-03-16 02:14:00,
2013-03-15 22:19:00,36.6,34.0,29.86,East,97,2.0,3.0,90,0.03,,-RA,0.04,VWS V14.00,2013-03-16 02:19:00,
2013-03-15 22:24:00,36.5,33.8,29.86,ENE,76,0.0,4.0,90,0.03,,-RA,0.04,VWS V14.00,2013-03-16 02:24:00,
2013-03-15 22:29:00,36.5,33.8,29.86,East,82,2.0,3.0,90,0.02,,-RA,0.04,VWS V14.00,2013-03-16 02:29:00,
2013-03-15 22:34:00,36.4,33.8,29.86,ENE,77,4.0,7.0,90,0.02,,-RA,0.04,VWS V14.00,2013-03-16 02:34:00,
2013-03-15 22:39:00,36.2,33.6,29.86,East,98,0.0,0.0,90,0.02,,-RA,0.04,VWS V14.00,2013-03-16 02:39:00,
2013-03-15 22:44:00,36.1,33.5,29.86,ENE,66,0.0,7.0,90,0.02,,-RA,0.04,VWS V14.00,2013-03-16 02:44:00,
2013-03-15 22:49:00,36.0,33.4,29.86,East,83,1.0,1.0,90,0.01,,-RA,0.04,VWS V14.00,2013-03-16 02:49:00,
2013-03-15 22:54:00,35.9,33.3,29.85,East,88,0.0,5.0,90,0.01,,-RA,0.04,VWS V14.00,2013-03-16 02:54:00,
2013-03-15 22:59:00,35.9,33.3,29.85,East,84,4.0,4.0,90,0.01,,-RA,0.04,VWS V14.00,2013-03-16 02:59:00,
2013-03-15 23:04:00,35.8,33.2,29.85,East,82,0.0,4.0,90,0.01,,-RA,0.04,VWS V14.00,2013-03-16 03:04:00,
2013-03-15 23:09:00,35.7,33.1,29.84,East,80,3.0,3.0,90,0.01,,-RA,0.04,VWS V14.00,2013-03-16 03:09:00,
2013-03-15 23:14:00,35.6,33.0,29.84,East,84,0.0,4.0,90,0.01,,-RA,0.04,VWS V14.00,2013-03-16 03:14:00,
2013-03-15 23:19:00,35.6,33.0,29.84,ESE,119,0.0,0.0,90,0.00,,-RA,0.04,VWS V14.00,2013-03-16 03:19:00,
2013-03-15 23:24:00,35.5,32.9,29.85,East,89,3.0,3.0,90,0.00,,-RA,0.04,VWS V14.00,2013-03-16 03:24:00,
2013-03-15 23:29:00,35.5,33.1,29.85,East,90,0.0,0.0,91,0.00,,-RA,0.04,VWS V14.00,2013-03-16 03:29:00,
2013-03-15 23:34:00,35.5,33.1,29.85,East,85,2.0,3.0,91,0.00,,-RA,0.04,VWS V14.00,2013-03-16 03:34:00,
2013-03-15 23:39:00,35.5,33.1,29.84,East,86,0.0,0.0,91,0.00,,-RA,0.04,VWS V14.00,2013-03-16 03:39:00,
2013-03-15 23:44:00,35.5,33.1,29.84,East,91,0.0,2.0,91,0.00,,-RA,0.04,VWS V14.00,2013-03-16 03:44:00,
2013-03-15 23:49:00,35.5,33.1,29.83,East,91,0.0,1.0,91,0.00,,-RA,0.04,VWS V14.00,2013-03-16 03:49:00,
2013-03-15 23:54:00,35.4,33.0,29.82,ESE,118,0.0,5.0,91,0.00,,-RA,0.04,VWS V14.00,2013-03-16 03:54:00,